{"data":{"norad_id":49746,"epoch":"2026-09-20T04:58:41.441376Z","epoch_age_seconds":70555,"freshness":"FRESH","line1":"1 49746U 21115Y   26263.20742409  .00000628  00000+0  28921-4 0  9998","line2":"2 49746  53.1663 349.0945 0001714  77.2477 282.8717 15.35401109264980","mean_motion":15.35401109,"eccentricity":0.0001714,"inclination_deg":53.1663,"raan_deg":349.0945,"arg_perigee_deg":77.2477,"mean_anomaly_deg":282.8717,"bstar":2.8921e-5,"rev_number":26498,"period_min":93.786567663603,"perigee_km":458.55733984616,"apogee_km":460.90136043098,"semimajor_km":6837.8663501386,"source":"CELESTRAK","updated_at":"2026-09-20T09:00:39.407469Z"}}